Weather History for London-Corbin, KY

Change the Weather History Date:

Sunday, July 28, 2013

  Actual Average Record
Temperature  
Mean Temperature 66 °F 76 °F  
Max Temperature 76 °F 86 °F 96 °F (1999)
Min Temperature 56 °F 66 °F 54 °F (1962)
Degree Days  
Heating Degree Days 0 0  
Month to date heating degree days 0 0  
Since 1 June heating degree days 0 9  
Since 1 July heating degree days 0 0  
Cooling Degree Days 1 11  
Month to date cooling degree days 268 308  
Year to date cooling degree days 599 665  
Since 1 June cooling degree days 499 551  
Growing Degree Days 18 (Base 50)    
Moisture  
Dew Point 54 °F    
Average Humidity 63    
Maximum Humidity 87    
Minimum Humidity 38    
Precipitation  
Precipitation 0.00 in 0.12 in 2.44 in (1972)
Month to date precipitation 6.80 3.68  
Year to date precipitation 37.05 28.61  
Sea Level Pressure  
Sea Level Pressure 30.01 in    
Wind  
Wind Speed 5 mph (WNW)    
Max Wind Speed 15 mph    
Max Gust Speed 20 mph    
Visibility 10 miles    
Events      
T = Trace of Precipitation, MM = Missing Value Source: NWS Daily Summary

Daily Weather History Graph

Daily Weather History Graph

Search for Another Location

Airport:

Trip Planner

Search our weather history database for the weather conditions in past years. The results will help you decide how hot, cold, wet, or windy it might be!

Date:

Astronomy

Jul. 28, 2013 Rise Set
Actual Time 6:38 AM EDT 8:46 PM EDT
Civil Twilight 6:09 AM EDT 9:15 PM EDT
Nautical Twilight 5:33 AM EDT 9:51 PM EDT
Astronomical Twilight 4:55 AM EDT 10:29 PM EDT
Moon No Moon Rise 1:08 PM EDT (7/28)
Length of Visible Light 15h 06m
Length of Day
14h 08m
Waning Gibbous, 61% of the Moon is Illuminated
Jul 28
Waning Gibbous
Jul 29
Last Quarter
Aug 6
New
Aug 14
First Quarter
Aug 20
Full

Hourly Weather History & Observations

Time (EDT) Temp. Dew Point Humidity Pressure Visibility Wind Dir Wind Speed Gust Speed Precip Events Conditions
12:53 AM 69.1 °F 64.0 °F 84% 29.92 in 10.0 mi Calm Calm - N/A   Overcast
1:53 AM 68.0 °F 64.0 °F 87% 29.92 in 10.0 mi West 3.5 mph - N/A   Overcast
2:53 AM 68.0 °F 64.0 °F 87% 29.93 in 10.0 mi West 5.8 mph - N/A   Overcast
3:53 AM 66.0 °F 61.0 °F 84% 29.94 in 10.0 mi NW 5.8 mph - N/A   Scattered Clouds
4:53 AM 64.9 °F 57.9 °F 78% 29.95 in 10.0 mi NNW 6.9 mph - N/A   Overcast
5:53 AM 63.0 °F 55.9 °F 78% 29.97 in 10.0 mi NW 6.9 mph - N/A   Overcast
6:53 AM 62.1 °F 55.9 °F 80% 29.99 in 10.0 mi Calm Calm - N/A   Mostly Cloudy
7:53 AM 61.0 °F 54.0 °F 78% 30.02 in 10.0 mi NW 3.5 mph - N/A   Scattered Clouds
8:53 AM 64.0 °F 54.0 °F 70% 30.02 in 10.0 mi NW 5.8 mph - N/A   Clear
9:53 AM 66.9 °F 53.1 °F 61% 30.02 in 10.0 mi NNW 4.6 mph - N/A   Clear
10:53 AM 69.1 °F 52.0 °F 54% 30.01 in 10.0 mi Variable 3.5 mph - N/A   Clear
11:53 AM 71.1 °F 54.0 °F 55% 30.03 in 10.0 mi Variable 6.9 mph - N/A   Clear
12:53 PM 71.1 °F 52.0 °F 51% 30.02 in 10.0 mi WSW 5.8 mph - N/A   Partly Cloudy
1:53 PM 73.9 °F 52.0 °F 46% 30.02 in 10.0 mi WNW 8.1 mph - N/A   Clear
2:53 PM 73.9 °F 48.9 °F 41% 30.02 in 10.0 mi WSW 8.1 mph 16.1 mph N/A   Clear
3:53 PM 73.9 °F 48.0 °F 40% 30.00 in 10.0 mi WSW 10.4 mph - N/A   Clear
4:53 PM 75.0 °F 48.9 °F 40% 30.00 in 10.0 mi WNW 6.9 mph - N/A   Clear
5:53 PM 75.0 °F 48.0 °F 38% 30.01 in 10.0 mi Variable 4.6 mph - N/A   Clear
6:53 PM 73.9 °F 50.0 °F 43% 30.01 in 10.0 mi West 9.2 mph - N/A   Clear
7:53 PM 72.0 °F 50.0 °F 46% 30.03 in 10.0 mi West 6.9 mph - N/A   Clear
8:53 PM 68.0 °F 51.1 °F 55% 30.05 in 10.0 mi WNW 3.5 mph - N/A   Clear
9:53 PM 66.0 °F 51.1 °F 59% 30.07 in 10.0 mi NW 3.5 mph - N/A   Clear
10:53 PM 61.0 °F 55.0 °F 81% 30.09 in 10.0 mi Calm Calm - N/A   Clear
11:53 PM 57.9 °F 54.0 °F 87% 30.10 in 10.0 mi Calm Calm - N/A   Clear